Weather History for Gillette, WY

Change the Weather History Date:

Wednesday, November 28, 2012

  Actual Average Record
Temperature  
Mean Temperature 36 °F 27 °F  
Max Temperature 48 °F 38 °F 62 °F (1932)
Min Temperature 23 °F 16 °F -13 °F (1985)
Degree Days  
Heating Degree Days 29 38  
Month to date heating degree days 777 888  
Since 1 July heating degree days 1574 1797  
Cooling Degree Days 0 0  
Month to date cooling degree days 0 0  
Year to date cooling degree days 795 502  
Moisture  
Dew Point 25 °F    
Average Humidity 67    
Maximum Humidity 85    
Minimum Humidity 49    
Precipitation  
Precipitation 0.00 in 0.01 in 0.40 in (1937)
Month to date precipitation 0.54 0.52  
Year to date precipitation 9.01 13.46  
Sea Level Pressure  
Sea Level Pressure 30.06 in    
Wind  
Wind Speed 8 mph (South)    
Max Wind Speed 22 mph    
Max Gust Speed 29 mph    
Visibility 10 miles    
Events      
T = Trace of Precipitation, MM = Missing Value Source: NWS Daily Summary

Daily Weather History Graph

Daily Weather History Graph

Search for Another Location

Airport:

Trip Planner

Search our weather history database for the weather conditions in past years. The results will help you decide how hot, cold, wet, or windy it might be!

Date:

Astronomy

Nov. 28, 2012 Rise Set
Actual Time 7:15 AM MST 4:25 PM MST
Civil Twilight 6:42 AM MST 4:57 PM MST
Nautical Twilight 6:06 AM MST 5:33 PM MST
Astronomical Twilight 5:31 AM MST 6:08 PM MST
Moon 4:42 PM MST (11/28) 7:14 AM MST (11/28)
Length of Visible Light 10h 15m
Length of Day
9h 10m
Full, 100% of the Moon is Illuminated
Nov 28
Full
Dec 6
Last Quarter
Dec 13
New
Dec 19
First Quarter
Dec 28
Full

Hourly Weather History & Observations

Time (MST) Temp. Windchill Dew Point Humidity Pressure Visibility Wind Dir Wind Speed Gust Speed Precip Events Conditions
12:53 AM 24.1 °F 18.2 °F 15.1 °F 69% 30.17 in 10.0 mi ENE 4.6 mph - N/A   Clear
1:53 AM 27.0 °F 16.7 °F 19.0 °F 72% 30.15 in 10.0 mi South 11.5 mph - N/A   Clear
2:53 AM 26.1 °F 16.8 °F 19.9 °F 78% 30.14 in 10.0 mi SSE 9.2 mph - N/A   Clear
3:53 AM 28.0 °F 20.8 °F 19.9 °F 72% 30.13 in 10.0 mi ESE 6.9 mph - N/A   Clear
4:53 AM 28.9 °F 23.9 °F 21.0 °F 72% 30.12 in 10.0 mi SE 4.6 mph - N/A   Clear
5:53 AM 36.0 °F 33.3 °F 23.0 °F 59% 30.12 in 10.0 mi South 3.5 mph - N/A   Clear
6:53 AM 36.0 °F 29.0 °F 25.0 °F 64% 30.12 in 10.0 mi SW 9.2 mph - N/A   Clear
7:53 AM 37.0 °F 28.1 °F 26.1 °F 65% 30.13 in 10.0 mi SW 15.0 mph - N/A   Clear
8:53 AM 39.0 °F 31.0 °F 27.0 °F 62% 30.12 in 10.0 mi SW 13.8 mph - N/A   Clear
9:53 AM 39.9 °F 31.4 °F 27.0 °F 60% 30.10 in 10.0 mi SW 16.1 mph - N/A   Clear
10:53 AM 41.0 °F 34.3 °F 27.0 °F 57% 30.10 in 10.0 mi SW 11.5 mph - N/A   Clear
11:53 AM 41.0 °F 33.9 °F 28.0 °F 60% 30.09 in 10.0 mi SW 12.7 mph - N/A   Clear
12:53 PM 44.1 °F 38.6 °F 28.9 °F 55% 30.06 in 10.0 mi SW 10.4 mph - N/A   Clear
1:53 PM 45.0 °F 40.6 °F 30.0 °F 56% 30.03 in 10.0 mi SW 8.1 mph - N/A   Clear
2:53 PM 46.0 °F 44.8 °F 28.0 °F 50% 30.04 in 10.0 mi SSW 3.5 mph - N/A   Clear
3:53 PM 44.1 °F - 30.0 °F 58% 30.02 in 10.0 mi Calm Calm - N/A   Clear
4:53 PM 33.1 °F 30.0 °F 27.0 °F 78% 30.04 in 10.0 mi South 3.5 mph - N/A   Clear
5:53 PM 33.1 °F - 27.0 °F 78% 30.01 in 10.0 mi Calm Calm - N/A   Clear
6:53 PM 28.9 °F 25.2 °F 24.1 °F 82% 30.01 in 10.0 mi South 3.5 mph - N/A   Clear
7:53 PM 33.1 °F 30.0 °F 26.1 °F 75% 29.99 in 10.0 mi ESE 3.5 mph - N/A   Clear
8:53 PM 34.0 °F 28.0 °F 24.1 °F 67% 29.96 in 10.0 mi SE 6.9 mph - N/A   Clear
9:53 PM 37.9 °F 29.6 °F 23.0 °F 55% 29.93 in 10.0 mi SSW 13.8 mph - N/A   Clear
10:53 PM 41.0 °F 37.1 °F 24.1 °F 51% 29.90 in 10.0 mi Variable 5.8 mph - N/A   Clear
11:53 PM 44.1 °F 35.9 °F 25.0 °F 47% 29.85 in 10.0 mi SSW 19.6 mph 28.8 mph N/A   Clear